Live-Position
3D-Globus wird geladen...
Über Geely Xingzuo 03 zu 10 xing
Group: 3 satellites
Beschreibung wird geladen...
Nächste Überflüge
Passes for default location (London). Set your location on the main map for personalized predictions.
Höhenverlauf
Loading altitude history...
No altitude history available
Zweizeiliger Elementsatz
1 61020U 24159K 26105.94755840 .00001013 00000-0 14737-3 0 9996
2 61020 50.0013 11.8618 0003800 234.7749 125.2835 14.84016022 87269
Epoch: 15. Apr. 2026 •
Age: 7 hours
Aktueller Status
Höhe 615.5 km
Geschwindigkeit 7.55 km/s
Subsatellitenpunkt 4.02°N,
107.15°W
Startdatum 5. Sept. 2024
Alter 1.6 years
Typ other
Technische Details
Klassifizierung Payload
Masse 130.00 kg
Trockenmasse 130.00 kg
Gesamtmasse 130.00 kg
Länge 1.00 m
Durchmesser 0.50 m
Spannweite 2.00 m
Form Box + 2 pan
Hersteller GWCG
Bus-Typ GPS100
Phasenstatus In Orbit
Besitzer/Staat GEESP/CN
Most Searched
Loading...